| time (UTC) | temp F | wind direction | speed MPH | gust MPH | rain 1hr in | rain 24hr in | rain mn in | humidity % | barometer mb |
| 20260505073547 | 64 | 187 | 3.0 | 7.0 | 0.00 | 0.00 | 0.00 | 65 | 1007.2 |
| 20260505073047 | 64 | 200 | 3.0 | 5.0 | 0.00 | 0.00 | 0.00 | 65 | 1007.3 |
| 20260505072547 | 65 | 192 | 3.0 | 5.0 | 0.00 | 0.00 | 0.00 | 65 | 1007.3 |
| 20260505072047 | 65 | 202 | 3.0 | 5.0 | 0.00 | 0.00 | 0.00 | 64 | 1007.3 |
| 20260505071547 | 65 | 186 | 3.0 | 5.0 | 0.00 | 0.00 | 0.00 | 64 | 1007.3 |
| 20260505071047 | 65 | 205 | 3.0 | 6.0 | 0.00 | 0.00 | 0.00 | 64 | 1007.3 |
| 20260505070544 | 65 | 213 | 3.0 | 8.0 | 0.00 | 0.00 | 0.00 | 63 | 1007.3 |
| 20260505070056 | 65 | 193 | 4.0 | 8.0 | 0.00 | 0.00 | 0.00 | 63 | 1007.2 |
| 20260505065546 | 65 | 211 | 4.0 | 7.0 | 0.00 | 0.00 | 0.00 | 63 | 1007.2 |
| 20260505065043 | 65 | 126 | 4.0 | 9.0 | 0.00 | 0.00 | 0.00 | 63 | 1007.2 |
| 20260505064545 | 65 | 199 | 4.0 | 9.0 | 0.00 | 0.00 | 0.00 | 63 | 1007.4 |
| 20260505064043 | 65 | 182 | 4.0 | 8.0 | 0.00 | 0.00 | 0.00 | 63 | 1007.4 |
| 20260505063544 | 65 | 211 | 4.0 | 8.0 | 0.00 | 0.00 | 0.00 | 63 | 1007.5 |
| 20260505063043 | 65 | 208 | 4.0 | 7.0 | 0.00 | 0.00 | 0.00 | 63 | 1007.6 |
| 20260505062545 | 65 | 198 | 4.0 | 10.0 | 0.00 | 0.00 | 0.00 | 63 | 1007.7 |
| 20260505062042 | 65 | 198 | 4.0 | 10.0 | 0.00 | 0.00 | 0.00 | 63 | 1007.7 |
| 20260505061542 | 65 | 195 | 4.0 | 6.0 | 0.00 | 0.00 | 0.00 | 63 | 1007.9 |
| 20260505061042 | 65 | 197 | 3.0 | 7.0 | 0.00 | 0.00 | 0.00 | 63 | 1008.1 |
| 20260505060541 | 65 | 196 | 3.0 | 7.0 | 0.00 | 0.00 | 0.00 | 63 | 1008.1 |
| 20260505060304 | 65 | 156 | 4.0 | 7.0 | 0.00 | 0.00 | 0.00 | 63 | 1008.1 |
| 20260505055807 | 65 | 191 | 4.0 | 6.0 | 0.00 | 0.00 | 0.00 | 63 | 1008.2 |
| 20260505055641 | 65 | 185 | 4.0 | 7.0 | 0.00 | 0.00 | 0.00 | 63 | 1008.2 |
| 20260505054538 | 65 | 196 | 4.0 | 6.0 | 0.00 | 0.00 | 0.00 | 63 | 1008.2 |
| 20260505054040 | 65 | 215 | 3.0 | 5.0 | 0.00 | 0.00 | 0.00 | 63 | 1008.3 |
| 20260505053536 | 65 | 166 | 3.0 | 5.0 | 0.00 | 0.00 | 0.00 | 63 | 1008.3 |
| 20260505053256 | 65 | 191 | 3.0 | 5.0 | 0.00 | 0.00 | 0.00 | 63 | 1008.3 |
| 20260505052536 | 65 | 205 | 3.0 | 5.0 | 0.00 | 0.00 | 0.00 | 63 | 1008.4 |
| 20260505052036 | 65 | 194 | 3.0 | 5.0 | 0.00 | 0.00 | 0.00 | 63 | 1008.4 |
| 20260505051534 | 65 | 194 | 3.0 | 5.0 | 0.00 | 0.00 | 0.00 | 62 | 1008.5 |
| 20260505051033 | 65 | 192 | 3.0 | 5.0 | 0.00 | 0.00 | 0.00 | 62 | 1008.6 |
| 20260505050530 | 65 | 198 | 3.0 | 5.0 | 0.00 | 0.00 | 0.00 | 62 | 1008.5 |
| 20260505050255 | 65 | 189 | 3.0 | 6.0 | 0.00 | 0.00 | 0.00 | 61 | 1008.6 |
| 20260505041526 | 66 | 196 | 3.0 | 6.0 | 0.00 | 0.00 | 0.00 | 61 | 1008.7 |
| 20260505041024 | 66 | 194 | 3.0 | 6.0 | 0.00 | 0.00 | 0.00 | 61 | 1008.6 |
| 20260505040524 | 66 | 188 | 3.0 | 5.0 | 0.00 | 0.00 | 0.00 | 61 | 1008.7 |
| 20260505040024 | 66 | 167 | 3.0 | 5.0 | 0.00 | 0.00 | 0.00 | 61 | 1008.6 |
| 20260505035524 | 66 | 184 | 3.0 | 5.0 | 0.00 | 0.00 | 0.00 | 62 | 1008.5 |
| 20260505035024 | 66 | 209 | 3.0 | 5.0 | 0.00 | 0.00 | 0.00 | 62 | 1008.5 |
| 20260505034524 | 65 | 192 | 3.0 | 5.0 | 0.00 | 0.00 | 0.00 | 62 | 1008.4 |
| 20260505034016 | 65 | 194 | 3.0 | 5.0 | 0.00 | 0.00 | 0.00 | 63 | 1008.5 |
| 20260505033510 | 65 | 186 | 3.0 | 5.0 | 0.00 | 0.00 | 0.00 | 63 | 1008.4 |
| 20260505033003 | 65 | 184 | 3.0 | 4.0 | 0.00 | 0.00 | 0.00 | 63 | 1008.5 |
| 20260505032721 | 65 | 198 | 3.0 | 5.0 | 0.00 | 0.00 | 0.00 | 63 | 1008.4 |
| 20260505031951 | 65 | 191 | 2.0 | 5.0 | 0.00 | 0.00 | 0.00 | 63 | 1008.5 |
| 20260505031448 | 65 | 188 | 2.0 | 4.0 | 0.00 | 0.00 | 0.00 | 63 | 1008.4 |
| 20260505030940 | 65 | 195 | 2.0 | 4.0 | 0.00 | 0.00 | 0.00 | 62 | 1008.2 |
| 20260505030434 | 66 | 194 | 2.0 | 4.0 | 0.00 | 0.00 | 0.00 | 62 | 1008.2 |
| 20260505025927 | 66 | 205 | 2.0 | 4.0 | 0.00 | 0.00 | 0.00 | 62 | 1008.1 |
| 20260505025421 | 66 | 194 | 2.0 | 4.0 | 0.00 | 0.00 | 0.00 | 62 | 1007.9 |
| 20260505024915 | 66 | 191 | 2.0 | 4.0 | 0.00 | 0.00 | 0.00 | 62 | 1007.8 |
| 20260505024640 | 66 | 194 | 2.0 | 4.0 | 0.00 | 0.00 | 0.00 | 62 | 1007.8 |
| 20260505023904 | 66 | 186 | 2.0 | 4.0 | 0.00 | 0.00 | 0.00 | 62 | 1007.8 |
| 20260505023846 | 66 | 171 | 2.0 | 4.0 | 0.00 | 0.00 | 0.00 | 61 | 1007.8 |
| 20260505023111 | 67 | 169 | 2.0 | 4.0 | 0.00 | 0.00 | 0.00 | 61 | 1007.8 |
| 20260505022346 | 67 | 173 | 2.0 | 4.0 | 0.00 | 0.00 | 0.00 | 61 | 1007.7 |
| 20260505021840 | 67 | 198 | 2.0 | 4.0 | 0.00 | 0.00 | 0.00 | 60 | 1007.7 |
| 20260505021333 | 67 | 182 | 2.0 | 4.0 | 0.00 | 0.00 | 0.00 | 60 | 1007.6 |
| 20260505020830 | 67 | 200 | 2.0 | 3.0 | 0.00 | 0.00 | 0.00 | 60 | 1007.5 |
| 20260505020322 | 67 | 200 | 2.0 | 3.0 | 0.00 | 0.00 | 0.00 | 59 | 1007.6 |
| 20260505020307 | 67 | 194 | 2.0 | 3.0 | 0.00 | 0.00 | 0.00 | 59 | 1007.3 |
| 20260505015310 | 67 | 188 | 2.0 | 4.0 | 0.00 | 0.00 | 0.00 | 59 | 1007.3 |
| 20260505014804 | 68 | 174 | 2.0 | 4.0 | 0.00 | 0.00 | 0.00 | 58 | 1007.3 |
| 20260505014258 | 68 | 193 | 2.0 | 4.0 | 0.00 | 0.00 | 0.00 | 58 | 1007.1 |
| 20260505014017 | 68 | 192 | 2.0 | 4.0 | 0.00 | 0.00 | 0.00 | 57 | 1007.0 |
| 20260505013245 | 69 | 190 | 2.0 | 4.0 | 0.00 | 0.00 | 0.00 | 56 | 1007.0 |
| 20260505012740 | 69 | 197 | 1.0 | 3.0 | 0.00 | 0.00 | 0.00 | 55 | 1006.9 |
| 20260505012237 | 70 | 197 | 0.0 | 0.0 | 0.00 | 0.00 | 0.00 | 54 | 1007.1 |
| 20260505011736 | 70 | 200 | 0.0 | 2.0 | 0.00 | 0.00 | 0.00 | 54 | 1007.1 |
| 20260505011236 | 70 | 197 | 0.0 | 2.0 | 0.00 | 0.00 | 0.00 | 53 | 1007.0 |
| 20260505010734 | 71 | 189 | 1.0 | 2.0 | 0.00 | 0.00 | 0.00 | 52 | 1006.9 |
| 20260505010234 | 71 | 189 | 1.0 | 3.0 | 0.00 | 0.00 | 0.00 | 51 | 1006.9 |
| 20260505005733 | 71 | 198 | 2.0 | 3.0 | 0.00 | 0.00 | 0.00 | 50 | 1006.9 |
| 20260505005232 | 71 | 205 | 2.0 | 4.0 | 0.00 | 0.00 | 0.00 | 50 | 1006.9 |
| 20260505004730 | 72 | 196 | 2.0 | 4.0 | 0.00 | 0.00 | 0.00 | 49 | 1007.0 |
| 20260505003728 | 73 | 213 | 3.0 | 5.0 | 0.00 | 0.00 | 0.00 | 49 | 1006.9 |
| 20260505003228 | 73 | 205 | 3.0 | 5.0 | 0.00 | 0.00 | 0.00 | 48 | 1007.0 |
| 20260505002942 | 74 | 202 | 3.0 | 4.0 | 0.00 | 0.00 | 0.00 | 47 | 1007.0 |
| 20260505002227 | 74 | 202 | 3.0 | 5.0 | 0.00 | 0.00 | 0.00 | 46 | 1007.1 |
| 20260505001726 | 74 | 191 | 4.0 | 7.0 | 0.00 | 0.00 | 0.00 | 46 | 1007.1 |
| 20260505001226 | 74 | 191 | 4.0 | 8.0 | 0.00 | 0.00 | 0.00 | 44 | 1007.0 |
| 20260505000945 | 75 | 200 | 4.0 | 8.0 | 0.00 | 0.00 | 0.00 | 44 | 1007.0 |
| 20260505000443 | 75 | 203 | 4.0 | 6.0 | 0.00 | 0.00 | 0.00 | 44 | 1006.9 |
| 20260504235726 | 75 | 202 | 4.0 | 8.0 | 0.00 | 0.00 | 0.00 | 44 | 1007.1 |
| 20260504235718 | 75 | 205 | 5.0 | 8.0 | 0.00 | 0.00 | 0.00 | 43 | 1007.1 |
| 20260504234719 | 76 | 205 | 4.0 | 7.0 | 0.00 | 0.00 | 0.00 | 43 | 1007.2 |
| 20260504234214 | 76 | 194 | 4.0 | 7.0 | 0.00 | 0.00 | 0.00 | 44 | 1007.3 |
| 20260504233931 | 76 | 192 | 5.0 | 9.0 | 0.00 | 0.00 | 0.00 | 43 | 1007.4 |
| 20260504233201 | 76 | 200 | 5.0 | 9.0 | 0.00 | 0.00 | 0.00 | 41 | 1007.4 |
| 20260504232933 | 77 | 210 | 4.0 | 7.0 | 0.00 | 0.00 | 0.00 | 42 | 1007.5 |
| 20260504232152 | 77 | 185 | 5.0 | 9.0 | 0.00 | 0.00 | 0.00 | 41 | 1007.5 |
| 20260504231644 | 77 | 206 | 6.0 | 9.0 | 0.00 | 0.00 | 0.00 | 40 | 1007.7 |
| 20260504231138 | 78 | 196 | 6.0 | 11.0 | 0.00 | 0.00 | 0.00 | 40 | 1007.8 |
| 20260504230631 | 78 | 196 | 5.0 | 11.0 | 0.00 | 0.00 | 0.00 | 40 | 1007.7 |
| 20260504230347 | 78 | 180 | 4.0 | 10.0 | 0.00 | 0.00 | 0.00 | 42 | 1007.6 |
| 20260504225620 | 78 | 194 | 4.0 | 9.0 | 0.00 | 0.00 | 0.00 | 41 | 1007.7 |
| 20260504225114 | 78 | 203 | 5.0 | 9.0 | 0.00 | 0.00 | 0.00 | 41 | 1007.6 |
| 20260504224608 | 79 | 197 | 6.0 | 9.0 | 0.00 | 0.00 | 0.00 | 42 | 1007.8 |
| 20260504224102 | 79 | 181 | 6.0 | 10.0 | 0.00 | 0.00 | 0.00 | 41 | 1007.8 |
| 20260504223556 | 79 | 201 | 6.0 | 10.0 | 0.00 | 0.00 | 0.00 | 40 | 1007.7 |
| 20260504223050 | 80 | 229 | 6.0 | 9.0 | 0.00 | 0.00 | 0.00 | 38 | 1007.7 |
| 20260504222544 | 80 | 183 | 6.0 | 9.0 | 0.00 | 0.00 | 0.00 | 38 | 1007.7 |
| 20260504222038 | 81 | 213 | 5.0 | 8.0 | 0.00 | 0.00 | 0.00 | 38 | 1007.6 |
| 20260504221534 | 81 | 198 | 5.0 | 10.0 | 0.00 | 0.00 | 0.00 | 40 | 1007.6 |
| 20260504221025 | 81 | 188 | 6.0 | 11.0 | 0.00 | 0.00 | 0.00 | 38 | 1007.6 |
| 20260504220519 | 81 | 190 | 6.0 | 11.0 | 0.00 | 0.00 | 0.00 | 37 | 1007.7 |
| 20260504220239 | 81 | 217 | 6.0 | 11.0 | 0.00 | 0.00 | 0.00 | 37 | 1007.7 |
| 20260504215508 | 81 | 221 | 6.0 | 11.0 | 0.00 | 0.00 | 0.00 | 38 | 1007.6 |
| 20260504215232 | 81 | 182 | 6.0 | 10.0 | 0.00 | 0.00 | 0.00 | 38 | 1007.6 |
| 20260504214506 | 81 | 213 | 7.0 | 11.0 | 0.00 | 0.00 | 0.00 | 40 | 1007.6 |
| 20260504214005 | 81 | 180 | 8.0 | 12.0 | 0.00 | 0.00 | 0.00 | 38 | 1007.6 |
| 20260504213506 | 81 | 177 | 7.0 | 12.0 | 0.00 | 0.00 | 0.00 | 37 | 1007.5 |
| 20260504213004 | 81 | 213 | 7.0 | 12.0 | 0.00 | 0.00 | 0.00 | 40 | 1007.4 |
| 20260504212728 | 81 | 181 | 7.0 | 12.0 | 0.00 | 0.00 | 0.00 | 38 | 1007.6 |
| 20260504212002 | 81 | 221 | 7.0 | 12.0 | 0.00 | 0.00 | 0.00 | 36 | 1007.4 |
| 20260504211502 | 81 | 209 | 8.0 | 14.0 | 0.00 | 0.00 | 0.00 | 37 | 1007.5 |
| 20260504211002 | 81 | 191 | 8.0 | 14.0 | 0.00 | 0.00 | 0.00 | 37 | 1007.6 |
| 20260504210502 | 81 | 214 | 8.0 | 12.0 | 0.00 | 0.00 | 0.00 | 37 | 1007.6 |
| 20260504210001 | 82 | 211 | 8.0 | 14.0 | 0.00 | 0.00 | 0.00 | 38 | 1007.5 |
| 20260504205732 | 82 | 200 | 8.0 | 14.0 | 0.00 | 0.00 | 0.00 | 36 | 1007.7 |
| 20260504205003 | 82 | 226 | 7.0 | 13.0 | 0.00 | 0.00 | 0.00 | 36 | 1007.6 |
| 20260504204722 | 82 | 159 | 6.0 | 12.0 | 0.00 | 0.00 | 0.00 | 37 | 1007.7 |
| 20260504203956 | 82 | 207 | 6.0 | 11.0 | 0.00 | 0.00 | 0.00 | 37 | 1007.7 |
| 20260504203501 | 82 | 204 | 7.0 | 11.0 | 0.00 | 0.00 | 0.00 | 41 | 1007.8 |
| 20260504202955 | 82 | 207 | 8.0 | 13.0 | 0.00 | 0.00 | 0.00 | 38 | 1007.8 |
| 20260504202454 | 82 | 203 | 8.0 | 13.0 | 0.00 | 0.00 | 0.00 | 37 | 1007.8 |
| 20260504201954 | 82 | 200 | 8.0 | 16.0 | 0.00 | 0.00 | 0.00 | 39 | 1007.8 |
| 20260504201454 | 83 | 204 | 6.0 | 16.0 | 0.00 | 0.00 | 0.00 | 38 | 1008.0 |
| 20260504200953 | 82 | 214 | 6.0 | 10.0 | 0.00 | 0.00 | 0.00 | 41 | 1008.0 |
| 20260504200454 | 82 | 224 | 7.0 | 12.0 | 0.00 | 0.00 | 0.00 | 39 | 1008.1 |
| 20260504195954 | 82 | 175 | 8.0 | 12.0 | 0.00 | 0.00 | 0.00 | 38 | 1008.1 |
| 20260504195453 | 82 | 169 | 8.0 | 11.0 | 0.00 | 0.00 | 0.00 | 37 | 1008.2 |
| 20260504194954 | 82 | 208 | 8.0 | 14.0 | 0.00 | 0.00 | 0.00 | 40 | 1008.1 |
| 20260504194454 | 82 | 201 | 8.0 | 14.0 | 0.00 | 0.00 | 0.00 | 39 | 1008.3 |
| 20260504193953 | 82 | 203 | 9.0 | 14.0 | 0.00 | 0.00 | 0.00 | 41 | 1008.3 |
| 20260504193453 | 82 | 189 | 9.0 | 14.0 | 0.00 | 0.00 | 0.00 | 39 | 1008.4 |
| 20260504192954 | 82 | 190 | 9.0 | 15.0 | 0.00 | 0.00 | 0.00 | 39 | 1008.4 |
| 20260504192454 | 82 | 226 | 9.0 | 15.0 | 0.00 | 0.00 | 0.00 | 38 | 1008.6 |
| 20260504191954 | 82 | 209 | 7.0 | 12.0 | 0.00 | 0.00 | 0.00 | 37 | 1008.4 |
| 20260504191454 | 82 | 193 | 8.0 | 13.0 | 0.00 | 0.00 | 0.00 | 39 | 1008.3 |
| 20260504190954 | 81 | 213 | 9.0 | 13.0 | 0.00 | 0.00 | 0.00 | 38 | 1008.4 |
| 20260504190451 | 81 | 217 | 10.0 | 16.0 | 0.00 | 0.00 | 0.00 | 38 | 1008.5 |
| 20260504185947 | 82 | 207 | 9.0 | 16.0 | 0.00 | 0.00 | 0.00 | 38 | 1008.7 |
| 20260504185448 | 82 | 214 | 8.0 | 15.0 | 0.00 | 0.00 | 0.00 | 38 | 1008.7 |
| 20260504184948 | 82 | 174 | 8.0 | 12.0 | 0.00 | 0.00 | 0.00 | 40 | 1008.6 |
| 20260504184447 | 82 | 209 | 7.0 | 12.0 | 0.00 | 0.00 | 0.00 | 40 | 1008.7 |
| 20260504183948 | 82 | 225 | 7.0 | 10.0 | 0.00 | 0.00 | 0.00 | 39 | 1008.7 |
| 20260504183448 | 82 | 221 | 7.0 | 13.0 | 0.00 | 0.00 | 0.00 | 40 | 1008.8 |
| 20260504182947 | 82 | 219 | 7.0 | 13.0 | 0.00 | 0.00 | 0.00 | 37 | 1009.0 |
| 20260504182447 | 83 | 221 | 6.0 | 12.0 | 0.00 | 0.00 | 0.00 | 38 | 1009.1 |
| 20260504182209 | 83 | 198 | 6.0 | 11.0 | 0.00 | 0.00 | 0.00 | 42 | 1009.1 |
| 20260504181448 | 82 | 186 | 6.0 | 11.0 | 0.00 | 0.00 | 0.00 | 41 | 1009.2 |
| 20260504181156 | 82 | 220 | 7.0 | 12.0 | 0.00 | 0.00 | 0.00 | 40 | 1009.3 |
| 20260504181041 | 82 | 203 | 7.0 | 12.0 | 0.00 | 0.00 | 0.00 | 40 | 1009.2 |
| 20260504180432 | 81 | 191 | 6.0 | 11.0 | 0.00 | 0.00 | 0.00 | 42 | 1009.4 |
| 20260504175448 | 81 | 184 | 6.0 | 12.0 | 0.00 | 0.00 | 0.00 | 39 | 1009.4 |
| 20260504175214 | 81 | 218 | 7.0 | 12.0 | 0.00 | 0.00 | 0.00 | 40 | 1009.4 |
| 20260504174447 | 81 | 220 | 7.0 | 12.0 | 0.00 | 0.00 | 0.00 | 41 | 1009.4 |
| 20260504174207 | 81 | 223 | 7.0 | 11.0 | 0.00 | 0.00 | 0.00 | 40 | 1009.5 |
| 20260504173448 | 81 | 201 | 8.0 | 11.0 | 0.00 | 0.00 | 0.00 | 41 | 1009.5 |
| 20260504173207 | 81 | 207 | 8.0 | 15.0 | 0.00 | 0.00 | 0.00 | 39 | 1009.7 |
| 20260504172720 | 81 | 200 | 8.0 | 15.0 | 0.00 | 0.00 | 0.00 | 40 | 1009.7 |
| 20260504171947 | 81 | 206 | 8.0 | 12.0 | 0.00 | 0.00 | 0.00 | 43 | 1009.7 |
| 20260504171446 | 81 | 184 | 8.0 | 12.0 | 0.00 | 0.00 | 0.00 | 43 | 1009.9 |
| 20260504170946 | 81 | 198 | 6.0 | 12.0 | 0.00 | 0.00 | 0.00 | 43 | 1009.8 |
| 20260504170447 | 81 | 207 | 5.0 | 8.0 | 0.00 | 0.00 | 0.00 | 46 | 1009.8 |
| 20260504150927 | 73 | 205 | 3.0 | 5.0 | 0.00 | 0.00 | 0.00 | 58 | 1011.1 |
| 20260504150428 | 73 | 217 | 3.0 | 6.0 | 0.00 | 0.00 | 0.00 | 58 | 1011.2 |
| 20260504140924 | 69 | 213 | 4.0 | 8.0 | 0.00 | 0.00 | 0.00 | 62 | 1011.2 |
| 20260504140421 | 69 | 184 | 4.0 | 6.0 | 0.00 | 0.00 | 0.00 | 63 | 1011.5 |
| 20260504130818 | 65 | 167 | 3.0 | 5.0 | 0.00 | 0.00 | 0.00 | 67 | 1011.4 |
| 20260504130313 | 65 | 194 | 3.0 | 5.0 | 0.00 | 0.00 | 0.00 | 67 | 1011.2 |
| 20260504120318 | 59 | 168 | 1.0 | 3.0 | 0.00 | 0.00 | 0.00 | 72 | 1011.0 |
| 20260504110223 | 58 | 196 | 1.0 | 3.0 | 0.00 | 0.00 | 0.00 | 70 | 1010.4 |
| 20260504100111 | 58 | 204 | 2.0 | 4.0 | 0.00 | 0.00 | 0.00 | 67 | 1010.5 |
| 20260504081952 | 59 | 189 | 3.0 | 5.0 | 0.00 | 0.00 | 0.00 | 63 | 1010.8 |
| 20260504081450 | 59 | 178 | 4.0 | 5.0 | 0.00 | 0.00 | 0.00 | 64 | 1010.8 |
| 20260504080951 | 59 | 209 | 4.0 | 5.0 | 0.00 | 0.00 | 0.00 | 64 | 1010.7 |
| 20260504080450 | 59 | 198 | 3.0 | 5.0 | 0.00 | 0.00 | 0.00 | 63 | 1010.7 |